Location: Rottenacker
(48.2350°N, 9.6886°E)
Time: 09:58:50
(UTC+02:00)

ISS - Pass Details

Date: 12 February 2018
Orbit: 402 x 406 km, 51.6° (Epoch: 18 June)

Event Time Altitude Azimuth Distance (km) Brightness Sun altitude
Rises 18:25:46 0° 289° (WNW) 2,321 1.2 -8.5°
Reaches altitude 10° 18:28:00 10° 278° (W) 1,458 0.4 -8.8°
Maximum altitude 18:30:53 29° 216° (SW) 780 -1.8 -9.3°
Drops below altitude 10° 18:33:44 10° 155° (SSE) 1,453 -1.2 -9.8°
Enters shadow 18:36:24 -2° 142° (SE) 2,487 -0.1 -10.2°
